User: anonymous   Login
Location: Unspecified
(0.0000°N, 0.0000°E)
Time: 04:01:14
(UTC+00:00)
Language:

TBA - TO BE ASSIGNED - Orbit

View from above orbital plane
View from above orbital plane
View from above satellite
View from above satellite

Ground track
Ground track

The orbit is defined by the following mean orbital elements,

1 67913U          26145.39270448 +.00000000 +00000-0 +48069-3 0 00004
2 67913  43.0032 172.0068 0001413 269.1887  90.8802 15.27581650    01
Epoch (UTC): 25 May 2026 09:25:29
Eccentricity: 0.0001413
inclination: 43.0032°
perigee height: 482 km
apogee height: 484 km
right ascension of ascending node: 172.0068°
argument of perigee: 269.1887°
revolutions per day: 15.27581650
mean anomaly at epoch: 90.8802°

The dashed part of the orbit path shows where the satellite is in the earth's shadow,  

DLR